This is the latest recevied weather packets stored in our database for station/object K3TLB-13. If no packets are shown the sender has not sent any weather packets the latest 10 day(s).
| Time | Temp. | Humidity | Pressure | Rain* | Wind** | Luminosity | Snow |
|---|---|---|---|---|---|---|---|
| 1778234633 | 3.89° C | 77% | 1014.2 hPa | 0 mm | - | - | - |
| 1778234333 | 3.33° C | 77% | 1014.1 hPa | 0 mm | - | - | - |
| 1778234033 | 3.33° C | 78% | 1014.2 hPa | 0 mm | - | - | - |
| 1778233819 | 3.33° C | 79% | 1014.3 hPa | 0 mm | - | - | - |
| 1778233733 | 3.33° C | 79% | 1014.3 hPa | 0 mm | - | - | - |
| 1778233433 | 3.33° C | 81% | 1014.2 hPa | 0 mm | - | - | - |
| 1778233132 | 3.33° C | 81% | 1014.2 hPa | 0 mm | - | - | - |
| 1778232833 | 2.78° C | 80% | 1014.3 hPa | 0 mm | - | - | - |
| 1778232729 | 2.78° C | 81% | 1014.3 hPa | 0 mm | - | - | - |
| 1778232533 | 2.78° C | 81% | 1014.3 hPa | 0 mm | - | - | - |
| 1778232233 | 2.78° C | 80% | 1014.3 hPa | 0 mm | - | - | - |
| 1778231933 | 3.33° C | 79% | 1014.2 hPa | 0 mm | - | - | - |
| 1778231633 | 3.33° C | 77% | 1014.2 hPa | 0 mm | - | - | - |
| 1778231333 | 3.89° C | 76% | 1014.2 hPa | 0 mm | - | - | - |
| 1778231066 | 3.89° C | 75% | 1014.1 hPa | 0 mm | - | - | - |
| 1778231033 | 3.89° C | 75% | 1014.1 hPa | 0 mm | - | - | - |
| 1778230767 | 3.89° C | 73% | 1014.1 hPa | 0 mm | - | - | - |
| 1778230733 | 3.89° C | 73% | 1014.1 hPa | 0 mm | - | - | - |
| 1778230468 | 3.89° C | 73% | 1014 hPa | 0 mm | - | - | - |
| 1778230433 | 3.89° C | 73% | 1014 hPa | 0 mm | - | - | - |
| 1778230178 | 4.44° C | 74% | 1013.9 hPa | 0 mm | - | - | - |
| 1778230133 | 4.44° C | 74% | 1013.9 hPa | 0 mm | - | - | - |
| 1778229833 | 4.44° C | 75% | 1014 hPa | 0 mm | - | - | - |
| 1778229533 | 5° C | 74% | 1014 hPa | 0 mm | - | - | - |
| 1778229233 | 5.56° C | 71% | 1013.9 hPa | 0 mm | - | - | - |
* Rain latest hour (hover to see other rain measurements)
** Current wind speed in m/s (hover to see current wind gust speed)